Airfield :
LOGIN :

Register | Disclaimer

   EN    FR    IT 

 










Legend :    VFR   Marginal VFR   IFR   Intensive IFR   Very Intensive IFR
Visi :
Ceiling :
>= 8 km
>= 3000ft
5 to 8 km
1000 to 3000 ft
1500m to 5 km
500 to 1000 ft
800 to 1500m
200 to 500 ft
< 800m
< 200 ft
Symbols :   Thunderstorms  Fog  Heavy snow  Heavy precipitations  Wind > 20 kt
SIGMETs :     Misc.  Thunderstorms  Icing  Turbulence  Mountain Waves  Volcanic Ashes







- Airport Elevation : 24 ft
- IATA code : FAO


LPFR - Faro

CURRENT METAR :
  • 252300Z 07008KT CAVOK 13/13 Q1009

EXPIRED METARs :
  • 252230Z 07007KT CAVOK 13/13 Q1010
  • 252200Z 07008KT CAVOK 13/12 Q1010
  • 252130Z 08006KT CAVOK 13/13 Q1010
  • 252100Z 07006KT CAVOK 13/12 Q1010
  • 252030Z 07005KT CAVOK 14/12 Q1010

TAF TAF LPFR
Valid from the 25 at 18:00 until the 26 at 18:00 UTC


251700Z 2518/2618 11012KT CAVOK
BECMG 2518/2520 07008KT
BECMG 2601/2603 10013KT
BECMG 2615/2618 26013KT
No reported NOTAMs for that airfield.



MET'MAP, your aeronautical weather chart ! - Copyright ORBIFLY December 2007 - Disclaimer

ORBIFLY MET'MAP TEAM :

Programming & Development : Alexandra Zaïnal
Concept & Development : Baudouin d'Aumeries
Co-Development & Prog : Marc-Olivier Méhu
Technical & hardware support : Manuel Goepfert

Contact : metmap@orbifly.com




SOURCES & CREDITS :

   NOAA